VE1DX Weather Reports


Display with metric or nautical units.
time (UTC)temp
F
wind
direction
speed
MPH
gust
MPH
rain 1hr
in
rain 24hr
in
rain mn
in
humidity
%
barometer
mb
20260505211016 58 135 3.0 7.0 0.00 0.00 0.00 76 1013.3
20260505210517 58 158 3.0 12.0 0.00 0.00 0.00 77 1013.3
20260505210016 58 203 5.0 14.0 0.00 0.00 0.00 76 1013.3
20260505205516 58 180 5.0 15.0 0.00 0.00 0.00 76 1013.3
20260505205016 58 180 6.0 15.0 0.00 0.00 0.00 75 1013.6
20260505204516 59 135 4.0 12.0 0.00 0.00 0.00 75 1013.5
20260505204016 59 135 4.0 10.0 0.00 0.00 0.00 74 1013.5
20260505203517 59 135 4.0 16.0 0.00 0.00 0.00 75 1013.5
20260505203016 59 135 4.0 11.0 0.00 0.00 0.00 73 1013.5
20260505202516 60 158 4.0 9.0 0.00 0.00 0.00 73 1013.5
20260505202017 60 135 4.0 12.0 0.00 0.00 0.00 72 1013.4
20260505201516 60 113 3.0 10.0 0.00 0.00 0.00 72 1013.6
20260505201017 60 135 4.0 20.0 0.00 0.00 0.00 72 1013.6
20260505200516 60 158 4.0 13.0 0.00 0.00 0.00 71 1013.6
20260505200017 60 135 3.0 9.0 0.00 0.00 0.00 72 1013.6
20260505195516 61 158 4.0 10.0 0.00 0.00 0.00 71 1013.6
20260505195016 61 158 3.0 8.0 0.00 0.00 0.00 71 1013.5
20260505194516 61 135 4.0 8.0 0.00 0.00 0.00 70 1013.5
20260505194016 61 158 4.0 10.0 0.00 0.00 0.00 71 1013.5
20260505193517 61 158 5.0 11.0 0.00 0.00 0.00 70 1013.6
20260505193016 61 158 4.0 11.0 0.00 0.00 0.00 70 1013.5
20260505192517 61 135 4.0 12.0 0.00 0.00 0.00 69 1013.6
20260505192016 62 158 3.0 8.0 0.00 0.00 0.00 69 1013.7
20260505191516 62 113 4.0 8.0 0.00 0.00 0.00 68 1013.7
20260505191016 62 113 4.0 9.0 0.00 0.00 0.00 68 1013.6
20260505190516 62 158 4.0 11.0 0.00 0.00 0.00 68 1013.6
20260505190021 62 135 4.0 13.0 0.00 0.00 0.00 67 1013.5
20260505185516 62 135 5.0 11.0 0.00 0.00 0.00 67 1013.6
20260505185016 62 135 4.0 9.0 0.00 0.00 0.00 67 1013.7
20260505184516 62 135 4.0 10.0 0.00 0.00 0.00 66 1013.5
20260505184016 62 135 4.0 11.0 0.00 0.00 0.00 66 1013.8
20260505183517 63 135 4.0 12.0 0.00 0.00 0.00 66 1013.8
20260505183016 63 158 3.0 9.0 0.00 0.00 0.00 65 1013.7
20260505182516 62 158 4.0 13.0 0.00 0.00 0.00 65 1013.7
20260505182017 62 135 3.0 6.0 0.00 0.00 0.00 65 1013.8
20260505181516 62 135 3.0 7.0 0.00 0.00 0.00 64 1013.8
20260505181017 62 180 3.0 6.0 0.00 0.00 0.00 65 1013.8
20260505180516 62 135 3.0 8.0 0.00 0.00 0.00 63 1013.9
20260505180016 62 135 3.0 7.0 0.00 0.00 0.00 63 1013.8
20260505175516 62 135 3.0 9.0 0.00 0.00 0.00 63 1013.7
20260505175016 62 135 3.0 12.0 0.00 0.00 0.00 64 1013.9
20260505174517 62 135 3.0 10.0 0.00 0.00 0.00 63 1013.8
20260505174016 62 225 3.0 8.0 0.00 0.00 0.00 63 1013.9
20260505173517 62 158 3.0 11.0 0.00 0.00 0.00 62 1013.9
20260505173016 62 158 3.0 9.0 0.00 0.00 0.00 61 1014.0
20260505172516 62 135 4.0 10.0 0.00 0.00 0.00 61 1013.8
20260505172016 62 158 4.0 12.0 0.00 0.00 0.00 61 1013.8
20260505171517 63 158 3.0 7.0 0.00 0.00 0.00 61 1013.8
20260505171016 63 158 3.0 9.0 0.00 0.00 0.00 61 1013.8
20260505170516 63 135 3.0 9.0 0.00 0.00 0.00 61 1013.7
20260505170016 62 203 3.0 9.0 0.00 0.00 0.00 63 1013.9
20260505165516 62 135 4.0 11.0 0.00 0.00 0.00 62 1013.9
20260505165016 62 135 3.0 7.0 0.00 0.00 0.00 65 1013.9
20260505164517 61 135 3.0 10.0 0.00 0.00 0.00 64 1014.0
20260505164016 61 135 3.0 9.0 0.00 0.00 0.00 65 1013.8
20260505163516 61 225 3.0 9.0 0.00 0.00 0.00 65 1013.9
20260505163016 61 203 4.0 10.0 0.00 0.00 0.00 66 1013.9
20260505162516 61 158 3.0 8.0 0.00 0.00 0.00 64 1014.0
20260505162016 61 135 3.0 8.0 0.00 0.00 0.00 64 1013.9
20260505161517 61 135 3.0 6.0 0.00 0.00 0.00 65 1014.0
20260505161016 60 135 3.0 6.0 0.00 0.00 0.00 65 1014.0
20260505160516 60 158 3.0 10.0 0.00 0.00 0.00 66 1013.9
20260505153017 60 158 3.0 7.0 0.00 0.00 0.00 65 1013.7
20260505152516 60 158 3.0 9.0 0.00 0.00 0.00 65 1013.7
20260505152016 60 225 2.0 10.0 0.00 0.00 0.00 66 1013.8
20260505151516 60 135 2.0 7.0 0.00 0.00 0.00 65 1013.7
20260505151017 60 135 2.0 5.0 0.00 0.00 0.00 66 1013.8
20260505150516 59 158 2.0 5.0 0.00 0.00 0.00 68 1013.9
20260505140517 56 158 5.0 10.0 0.00 0.00 0.00 69 1013.6
20260505125017 57 158 2.0 10.0 0.00 0.00 0.00 67 1013.4
20260505124516 57 135 2.0 6.0 0.00 0.00 0.00 69 1013.4
20260505124016 57 135 2.0 6.0 0.00 0.00 0.00 69 1013.4
20260505123517 56 135 2.0 4.0 0.00 0.00 0.00 70 1013.3
20260505123016 56 225 2.0 5.0 0.00 0.00 0.00 70 1013.3
20260505122516 55 158 2.0 9.0 0.00 0.00 0.00 70 1013.3
20260505122016 55 225 2.0 7.0 0.00 0.00 0.00 70 1013.2
20260505121517 55 135 2.0 8.0 0.00 0.00 0.00 71 1013.2
20260505121016 54 225 2.0 5.0 0.00 0.00 0.00 71 1013.2
20260505120516 54 225 2.0 8.0 0.00 0.00 0.00 71 1013.2
20260505120016 54 225 2.0 7.0 0.00 0.00 0.00 72 1013.3
20260505115517 54 135 1.0 6.0 0.00 0.00 0.00 72 1013.1
20260505115017 53 113 2.0 5.0 0.00 0.00 0.00 73 1013.1
20260505114516 53 113 1.0 3.0 0.00 0.00 0.00 74 1013.0
20260505114017 52 225 1.0 6.0 0.00 0.00 0.00 75 1013.0
20260505113517 52 203 1.0 4.0 0.00 0.00 0.00 76 1013.0
20260505113016 51 225 1.0 4.0 0.00 0.00 0.00 78 1013.0
20260505112516 50 203 2.0 8.0 0.00 0.00 0.00 78 1013.1
20260505112016 49 225 1.0 4.0 0.00 0.00 0.00 79 1013.0
20260505111516 49 225 1.0 4.0 0.00 0.00 0.00 80 1013.0
20260505111016 48 113 1.0 5.0 0.00 0.00 0.00 81 1012.9
20260505110516 48 203 1.0 6.0 0.00 0.00 0.00 81 1012.9
20260505102017 45 0.0 2.0 0.00 0.00 0.00 84 1012.5
20260505101516 45 0.0 2.0 0.00 0.00 0.00 85 1012.5
20260505101016 45 0.0 1.0 0.00 0.00 0.00 85 1012.4
20260505100516 44 0.0 4.0 0.00 0.00 0.00 85 1012.4
20260505100016 44 135 1.0 3.0 0.00 0.00 0.00 85 1012.3
20260505095516 44 0.0 4.0 0.00 0.00 0.00 85 1012.3
20260505095016 44 135 1.0 3.0 0.00 0.00 0.00 85 1012.2
20260505094516 44 135 1.0 3.0 0.00 0.00 0.00 84 1012.3
20260505094016 44 225 1.0 3.0 0.00 0.00 0.00 84 1012.2
20260505093516 44 135 1.0 6.0 0.00 0.00 0.00 84 1012.1
20260505093016 44 0.0 2.0 0.00 0.00 0.00 84 1012.3
20260505092516 44 225 1.0 4.0 0.00 0.00 0.00 84 1012.2
20260505092016 44 158 1.0 6.0 0.00 0.00 0.00 84 1012.3
20260505091516 45 113 1.0 4.0 0.00 0.00 0.00 84 1012.1
20260505091016 45 225 2.0 9.0 0.00 0.00 0.00 84 1012.1
20260505090516 45 203 1.0 5.0 0.00 0.00 0.00 84 1012.0
20260505090016 45 203 1.0 3.0 0.00 0.00 0.00 83 1012.2
20260505085517 45 0.0 2.0 0.00 0.00 0.00 83 1012.4
20260505085016 45 225 2.0 7.0 0.00 0.00 0.00 83 1012.1
20260505084516 45 0.0 5.0 0.00 0.00 0.00 84 1012.1
20260505084016 45 135 1.0 4.0 0.00 0.00 0.00 84 1012.0
20260505083516 45 113 1.0 3.0 0.00 0.00 0.00 84 1011.6
20260505083017 45 0.0 1.0 0.00 0.00 0.00 84 1011.8
20260505082517 45 0.0 3.0 0.00 0.00 0.00 84 1011.9
20260505082016 45 0.0 2.0 0.00 0.00 0.00 84 1011.9
20260505081516 45 0.0 2.0 0.00 0.00 0.00 83 1011.8
20260505081016 45 0.0 2.0 0.00 0.00 0.00 83 1011.7
20260505080516 45 0.0 4.0 0.00 0.00 0.00 83 1011.6
20260505080016 45 0.0 2.0 0.00 0.00 0.00 83 1011.6
20260505075516 45 0.0 1.0 0.00 0.00 0.00 83 1011.7
20260505075016 45 0.0 1.0 0.00 0.00 0.00 82 1011.8
20260505074517 46 0.0 2.0 0.00 0.00 0.00 82 1011.8
20260505074016 46 0.0 1.0 0.00 0.00 0.00 81 1011.8
20260505073516 46 0.0 2.0 0.00 0.00 0.00 81 1011.5
20260505073016 46 0.0 1.0 0.00 0.00 0.00 81 1011.2
20260505072516 46 135 1.0 2.0 0.00 0.00 0.00 80 1011.2
20260505072017 47 0.0 1.0 0.00 0.00 0.00 80 1011.3
20260505071516 47 135 1.0 4.0 0.00 0.00 0.00 80 1011.2
20260505071016 47 0.0 2.0 0.00 0.00 0.00 80 1011.4
20260505070516 47 0.0 2.0 0.00 0.00 0.00 80 1011.4
20260505070016 47 135 1.0 7.0 0.00 0.00 0.00 79 1011.3
20260505065516 47 0.0 0.0 0.00 0.00 0.00 79 1011.3
20260505065016 47 0.0 1.0 0.00 0.00 0.00 79 1011.1
20260505064516 47 0.0 4.0 0.00 0.00 0.00 79 1010.9
20260505064016 47 0.0 1.0 0.00 0.00 0.00 79 1010.9
20260505063516 47 113 1.0 2.0 0.00 0.00 0.00 79 1010.8
20260505063016 47 225 1.0 2.0 0.00 0.00 0.00 79 1010.9
20260505062516 47 0.0 3.0 0.00 0.00 0.00 79 1010.8
20260505062016 47 225 1.0 4.0 0.00 0.01 0.00 79 1010.9
20260505061516 47 180 1.0 5.0 0.00 0.01 0.00 80 1010.9
20260505061016 47 203 1.0 5.0 0.00 0.01 0.00 80 1011.0
20260505060516 46 203 1.0 5.0 0.00 0.01 0.00 79 1011.1
20260505060016 46 0.0 0.0 0.00 0.01 0.00 79 1010.8
20260505055516 47 0.0 0.0 0.00 0.01 0.00 78 1010.6
20260505055016 47 0.0 4.0 0.00 0.02 0.00 78 1010.7
20260505054516 47 0.0 3.0 0.00 0.02 0.00 78 1010.6
20260505054016 47 225 1.0 3.0 0.00 0.02 0.00 78 1010.6
20260505053517 47 0.0 5.0 0.00 0.02 0.00 78 1010.5
20260505053016 47 0.0 2.0 0.00 0.02 0.00 78 1010.4
20260505052516 47 0.0 3.0 0.00 0.03 0.00 78 1010.4
20260505052016 47 0.0 1.0 0.00 0.03 0.00 78 1010.4
20260505051516 47 0.0 1.0 0.00 0.03 0.00 77 1010.4
20260505051016 48 225 1.0 4.0 0.00 0.03 0.00 77 1010.4
20260505050516 48 225 1.0 3.0 0.00 0.04 0.00 77 1010.3
20260505041516 49 225 2.0 9.0 0.00 0.07 0.00 74 1009.8
20260505041016 49 225 2.0 7.0 0.00 0.07 0.00 74 1009.7
20260505040516 49 225 1.0 5.0 0.00 0.07 0.00 74 1009.6
20260505040016 49 225 1.0 6.0 0.00 0.08 0.00 74 1009.5
20260505035516 50 225 2.0 7.0 0.00 0.08 0.00 73 1009.5
20260505035016 50 270 2.0 11.0 0.00 0.09 0.00 73 1009.5
20260505034516 50 203 1.0 6.0 0.00 0.09 0.00 73 1009.5
20260505034016 50 248 2.0 7.0 0.00 0.09 0.00 73 1009.4
20260505033516 50 315 2.0 8.0 0.00 0.09 0.00 73 1009.3
20260505033016 49 270 2.0 7.0 0.00 0.09 0.00 74 1009.2
20260505032517 49 293 2.0 6.0 0.00 0.10 0.00 75 1009.2
20260505032016 49 225 1.0 6.0 0.00 0.10 0.00 76 1009.1
20260505031516 48 203 2.0 5.0 0.00 0.10 0.00 76 1009.0
20260505031016 48 225 2.0 8.0 0.00 0.10 0.00 78 1008.9
20260505030516 47 248 1.0 10.0 0.00 0.10 0.00 80 1008.7
20260505030016 46 225 2.0 6.0 0.00 0.11 0.00 82 1008.7
20260505025517 45 0.0 6.0 0.00 0.11 0.11 85 1008.7
20260505025017 44 0.0 1.0 0.00 0.11 0.11 86 1008.6
20260505024517 44 0.0 0.0 0.00 0.12 0.11 86 1008.6
20260505024016 44 0.0 0.0 0.00 0.12 0.11 85 1008.6
20260505023517 44 0.0 0.0 0.00 0.12 0.11 85 1008.6
20260505023017 44 0.0 0.0 0.00 0.12 0.11 84 1008.5
20260505022517 44 0.0 1.0 0.00 0.12 0.11 83 1008.4
20260505022016 45 0.0 0.0 0.00 0.12 0.11 82 1008.3
20260505021516 45 0.0 0.0 0.00 0.12 0.11 82 1008.3
20260505021017 45 0.0 2.0 0.00 0.12 0.11 81 1008.2
20260505020517 45 0.0 1.0 0.00 0.12 0.11 81 1008.1
20260505020017 45 0.0 1.0 0.00 0.12 0.11 81 1008.0
20260505015517 45 0.0 1.0 0.00 0.13 0.11 81 1008.0
20260505015017 45 0.0 1.0 0.00 0.13 0.11 81 1007.8
20260505014517 45 0.0 1.0 0.00 0.13 0.11 81 1007.8
20260505014017 45 0.0 2.0 0.00 0.13 0.11 80 1007.6
20260505013517 45 0.0 3.0 0.00 0.13 0.11 80 1007.7
20260505013017 45 0.0 1.0 0.00 0.13 0.11 80 1007.6
20260505012517 45 0.0 2.0 0.00 0.13 0.11 80 1007.7
20260505012017 46 0.0 2.0 0.00 0.13 0.11 79 1007.6
20260505011517 46 0.0 1.0 0.00 0.13 0.11 79 1007.5
20260505011016 46 0.0 1.0 0.00 0.13 0.11 79 1007.6
20260505010517 46 0.0 1.0 0.00 0.13 0.11 78 1007.6
20260505010016 46 0.0 2.0 0.00 0.13 0.11 78 1007.5
20260505005517 46 0.0 2.0 0.00 0.13 0.11 78 1007.4
20260505005017 46 0.0 1.0 0.00 0.13 0.11 78 1007.4
20260505004516 46 0.0 2.0 0.00 0.13 0.11 77 1007.3
20260505004017 47 0.0 1.0 0.00 0.13 0.11 77 1007.2
20260505003517 47 0.0 1.0 0.00 0.13 0.11 77 1007.2
20260505003017 47 0.0 2.0 0.00 0.13 0.11 77 1007.1
20260505002516 47 158 1.0 3.0 0.00 0.13 0.11 77 1007.1
20260505002017 47 0.0 3.0 0.00 0.13 0.11 76 1007.1
20260505001517 47 0.0 2.0 0.00 0.13 0.11 76 1007.0
20260505001016 48 0.0 2.0 0.00 0.13 0.11 75 1006.9
20260505000517 48 0.0 2.0 0.00 0.13 0.11 75 1006.8
20260505000017 48 0.0 1.0 0.00 0.13 0.11 74 1006.7
20260504235517 48 0.0 0.0 0.00 0.13 0.11 74 1006.7
20260504235017 49 0.0 3.0 0.00 0.13 0.11 74 1006.6
20260504234516 49 0.0 3.0 0.00 0.13 0.11 73 1006.5
20260504234016 49 225 1.0 3.0 0.00 0.13 0.11 73 1006.6
20260504233517 49 225 1.0 4.0 0.00 0.13 0.11 73 1006.5
20260504233016 49 203 2.0 6.0 0.00 0.13 0.11 73 1006.6
20260504232517 49 225 1.0 5.0 0.00 0.13 0.11 73 1006.5
20260504232017 49 113 2.0 6.0 0.00 0.13 0.11 72 1006.4
20260504231517 50 203 2.0 6.0 0.00 0.13 0.11 72 1006.3
20260504231017 50 203 2.0 8.0 0.00 0.13 0.11 71 1006.2
20260504230516 50 113 2.0 8.0 0.00 0.13 0.11 71 1006.1
20260504230017 51 135 1.0 3.0 0.00 0.13 0.11 70 1006.1
20260504225517 51 135 1.0 4.0 0.00 0.13 0.11 69 1005.9
20260504225017 52 135 1.0 4.0 0.00 0.14 0.11 69 1005.8
20260504224516 52 225 2.0 9.0 0.00 0.14 0.11 67 1005.9
20260504224017 52 135 1.0 7.0 0.00 0.14 0.11 67 1005.8
20260504223517 52 158 2.0 5.0 0.00 0.14 0.11 67 1005.8
20260504223017 52 248 1.0 6.0 0.00 0.14 0.11 67 1005.8
20260504222517 52 225 2.0 6.0 0.00 0.15 0.11 67 1005.9
20260504222017 52 315 1.0 3.0 0.00 0.15 0.11 67 1005.9
20260504221517 52 225 1.0 7.0 0.00 0.16 0.11 67 1005.9
20260504221017 52 203 3.0 11.0 0.00 0.17 0.11 68 1005.9
20260504220517 52 158 1.0 5.0 0.00 0.17 0.11 68 1005.8
20260504220016 52 225 1.0 6.0 0.00 0.17 0.11 68 1005.8
20260504215517 52 225 2.0 8.0 0.00 0.18 0.11 67 1005.7
20260504215016 52 225 2.0 7.0 0.00 0.18 0.11 66 1005.6
20260504214517 53 158 2.0 10.0 0.00 0.18 0.11 65 1005.5
20260504214017 53 135 1.0 5.0 0.00 0.18 0.11 64 1005.3
20260504213516 53 135 2.0 9.0 0.00 0.19 0.11 63 1005.5
20260504213017 53 225 3.0 12.0 0.00 0.19 0.11 62 1005.4
20260504212516 53 203 3.0 8.0 0.00 0.19 0.11 61 1005.3
20260504212017 54 203 3.0 10.0 0.00 0.19 0.11 60 1005.2
20260504211516 54 180 4.0 11.0 0.00 0.19 0.11 59 1005.0